Horseheads, NY

7:44 PM EST on February 23, 2017 (GMT -0500)
Elmira-Corning Regional

Weather History for KELM - July, 2012

Change the Weather History Date:

Sunday, July 8, 2012

  Actual Average Record
Temperature  
Mean Temperature 73 °F -  
Max Temperature 86 °F 81 °F 101 °F (1936)
Min Temperature 62 °F 55 °F 44 °F (1968)
Cooling Degree Days 8    
Growing Degree Days 23 (Base 50)    
Moisture  
Dew Point 61 °F    
Average Humidity 74    
Maximum Humidity 100    
Minimum Humidity 34    
Precipitation  
Precipitation 0.00 in - - ()
Sea Level Pressure  
Sea Level Pressure 29.92 in    
Wind  
Wind Speed 3 mph (North)    
Max Wind Speed 14 mph    
Max Gust Speed 21 mph    
Visibility 7 miles    
Events Fog    
Averages and records for this station are not official NWS values.
T = Trace of Precipitation, MM = Missing Value Source: NWS Daily Summary

Daily Weather History Graph

Daily Weather History Graph

Search for Another Location

Airport or City:

Trip Planner

Search our weather history database for the weather conditions in past years. The results will help you decide how hot, cold, wet, or windy it might be!

Date:

Astronomy

Jul. 08, 2012 Rise Set
Actual Time 5:39 AM EDT 8:45 PM EDT
Civil Twilight 5:05 AM EDT 9:19 PM EDT
Nautical Twilight 4:22 AM EDT 10:02 PM EDT
Astronomical Twilight 3:30 AM EDT 10:54 PM EDT
Moon 11:24 PM EDT (7/8) 11:11 AM EDT (7/8)
Length of Visible Light 16h 13m
Length of Day
15h 05m
Waning Gibbous, 73% of the Moon is Illuminated
Jul 8
Waning Gibbous
Jul 10
Last Quarter
Jul 19
New
Jul 26
First Quarter
Aug 1
Full

Hourly Weather History & Observations

Time (EDT) Temp. Heat Index Dew Point Humidity Pressure Visibility Wind Dir Wind Speed Gust Speed Precip Events Conditions
12:53 AM 71.1 °F - 64.9 °F 81% 29.90 in 10.0 mi Calm Calm - N/A   Overcast
1:53 AM 69.1 °F - 64.0 °F 84% 29.89 in 10.0 mi NNE 6.9 mph - N/A   Overcast
2:53 AM 66.0 °F - 64.0 °F 93% 29.90 in 10.0 mi Calm Calm - N/A   Partly Cloudy
3:51 AM 64.4 °F - 62.6 °F 94% 29.92 in 1.5 mi Calm Calm - N/A   Clear
3:53 AM 63.0 °F - 62.1 °F 97% 29.90 in 1.0 mi NNW 3.5 mph - N/A   Clear
4:03 AM 62.6 °F - 60.8 °F 94% 29.92 in 3.0 mi Calm Calm - N/A   Clear
4:29 AM 64.4 °F - 60.8 °F 88% 29.92 in 1.5 mi Calm Calm - N/A   Clear
4:38 AM 62.6 °F - 62.6 °F 100% 29.92 in 0.5 mi Calm Calm - N/A Fog Fog
4:50 AM 62.6 °F - 62.6 °F 100% 29.92 in 3.0 mi Calm Calm - N/A   Mostly Cloudy
4:53 AM 63.0 °F - 62.1 °F 97% 29.91 in 9.0 mi Calm Calm - N/A   Mostly Cloudy
5:06 AM 62.6 °F - 60.8 °F 94% 29.92 in 1.5 mi Calm Calm - N/A   Overcast
5:16 AM 62.6 °F - 60.8 °F 94% 29.92 in 3.0 mi Calm Calm - N/A   Overcast
5:53 AM 64.9 °F - 62.1 °F 90% 29.91 in 7.0 mi Calm Calm - N/A   Overcast
6:03 AM 66.2 °F - 64.4 °F 94% 29.93 in 0.5 mi WSW 5.8 mph - N/A Fog Fog
6:53 AM 64.9 °F - 64.0 °F 97% 29.92 in 0.5 mi West 4.6 mph - N/A Fog Fog
7:53 AM 68.0 °F - 64.4 °F 88% 29.94 in 4.0 mi South 4.6 mph - N/A   Partly Cloudy
8:53 AM 72.0 °F - 64.0 °F 76% 29.93 in 10.0 mi SSW 5.8 mph - N/A   Clear
9:53 AM 75.0 °F - 66.0 °F 73% 29.93 in 10.0 mi WSW 6.9 mph - N/A   Clear
10:53 AM 80.1 °F 81.9 °F 64.9 °F 60% 29.92 in 10.0 mi Variable 4.6 mph - N/A   Scattered Clouds
11:53 AM 81.0 °F 81.7 °F 61.0 °F 50% 29.92 in 10.0 mi NNE 4.6 mph - N/A   Mostly Cloudy
12:53 PM 84.0 °F 84.4 °F 61.0 °F 46% 29.91 in 10.0 mi North 13.8 mph 19.6 mph N/A   Partly Cloudy
1:53 PM 84.9 °F 83.3 °F 54.0 °F 34% 29.92 in 10.0 mi NE 8.1 mph - N/A   Scattered Clouds
2:53 PM 84.0 °F 82.9 °F 55.0 °F 37% 29.91 in 10.0 mi NNE 8.1 mph - N/A   Scattered Clouds
3:53 PM 84.9 °F 83.9 °F 57.0 °F 38% 29.91 in 10.0 mi NE 5.8 mph - N/A   Partly Cloudy
4:53 PM 84.0 °F 83.3 °F 57.0 °F 40% 29.90 in 10.0 mi NNE 13.8 mph 20.7 mph N/A   Scattered Clouds
5:53 PM 82.9 °F 82.4 °F 57.0 °F 41% 29.89 in 10.0 mi NNE 11.5 mph - N/A   Clear
6:53 PM 80.1 °F 80.6 °F 57.9 °F 47% 29.89 in 10.0 mi North 11.5 mph - N/A   Clear
7:53 PM 77.0 °F - 57.0 °F 50% 29.91 in 10.0 mi North 10.4 mph - N/A   Clear
8:53 PM 73.9 °F - 57.0 °F 55% 29.91 in 10.0 mi NE 5.8 mph - N/A   Partly Cloudy
9:53 PM 71.1 °F - 57.0 °F 61% 29.94 in 10.0 mi ENE 3.5 mph - N/A   Clear
10:53 PM 64.9 °F - 57.9 °F 78% 29.94 in 10.0 mi Calm Calm - N/A   Clear
11:53 PM 63.0 °F - 57.9 °F 84% 29.94 in 10.0 mi Calm Calm - N/A   Clear